TimeCDT,TemperatureF,Dew PointF,Humidity,Sea Level PressureIn,VisibilityMPH,Wind Direction,Wind SpeedMPH,Gust SpeedMPH,PrecipitationIn,Events,Conditions,WindDirDegrees,DateUTC
12:53 AM,54.0,35.1,49,29.98,10.0,South,8.1,-,N/A,,Clear,170,2012-10-09 05:53:00
1:53 AM,53.1,36.0,52,29.97,10.0,South,9.2,-,N/A,,Clear,170,2012-10-09 06:53:00
2:53 AM,53.6,35.6,51,29.96,10.0,SSE,11.5,16.1,N/A,,Clear,160,2012-10-09 07:53:00
3:53 AM,51.1,37.0,59,29.93,10.0,SSE,11.5,-,N/A,,Clear,160,2012-10-09 08:53:00
4:53 AM,51.1,39.0,63,29.91,10.0,South,11.5,19.6,N/A,,Clear,170,2012-10-09 09:53:00
5:53 AM,51.1,39.9,66,29.90,10.0,SSE,13.8,25.3,N/A,,Clear,160,2012-10-09 10:53:00
6:53 AM,48.9,41.0,74,29.89,10.0,SSE,12.7,-,N/A,,Clear,160,2012-10-09 11:53:00
7:53 AM,50.0,42.1,74,29.89,10.0,SSE,10.4,-,N/A,,Clear,160,2012-10-09 12:53:00
8:53 AM,54.0,44.1,69,29.89,10.0,South,9.2,20.7,N/A,,Clear,180,2012-10-09 13:53:00
9:53 AM,57.0,46.0,67,29.88,10.0,South,11.5,19.6,N/A,,Clear,170,2012-10-09 14:53:00
11:53 AM,66.0,48.9,54,29.86,10.0,South,10.4,16.1,N/A,,Clear,180,2012-10-09 16:53:00
12:53 PM,69.1,50.0,51,29.83,10.0,Variable,6.9,18.4,N/A,,Mostly Cloudy,0,2012-10-09 17:53:00
1:53 PM,70.0,50.0,49,29.84,10.0,WSW,9.2,-,N/A,,Overcast,240,2012-10-09 18:53:00
2:53 PM,70.0,51.1,51,29.83,10.0,Variable,3.5,-,N/A,,Overcast,0,2012-10-09 19:53:00
3:53 PM,72.0,50.0,46,29.85,10.0,SSW,6.9,-,N/A,,Partly Cloudy,200,2012-10-09 20:53:00
4:53 PM,75.0,48.9,40,29.86,10.0,WNW,4.6,-,N/A,,Partly Cloudy,290,2012-10-09 21:53:00
5:53 PM,73.9,48.9,41,29.88,10.0,NNE,9.2,-,N/A,,Scattered Clouds,20,2012-10-09 22:53:00
6:53 PM,66.9,50.0,54,29.94,10.0,NE,11.5,-,N/A,,Mostly Cloudy,40,2012-10-09 23:53:00
7:53 PM,63.0,48.0,58,29.98,10.0,NNE,23.0,28.8,N/A,,Mostly Cloudy,20,2012-10-10 00:53:00
8:53 PM,59.0,43.0,55,30.03,10.0,NNE,10.4,-,N/A,,Partly Cloudy,30,2012-10-10 01:53:00
9:53 PM,57.0,41.0,55,30.07,10.0,NNE,15.0,-,N/A,,Clear,30,2012-10-10 02:53:00
10:53 PM,54.0,41.0,62,30.10,10.0,NNE,11.5,-,N/A,,Clear,30,2012-10-10 03:53:00
11:53 PM,52.0,41.0,66,30.13,10.0,NE,5.8,-,N/A,,Clear,40,2012-10-10 04:53:00